Location: *
(53.9002°N, 27.5624°E)
Time: 14:56:55
(UTC+00:00)

CENTAUR R/B - Visible Passes

Search period start: 18 February 2020 00:00
Search period end: 28 February 2020 00:00
Orbit: 766 x 1422 km, 63.5° (Epoch: 07 February)

Date Brightness Start Highest point End Pass type
(mag) Time Alt. Az. Time Alt. Az. Time Alt. Az.
18 Feb 3.7 17:13:42 10° WNW 17:20:16 41° N 17:25:32 19° ENE visible
18 Feb 3.3 19:05:09 10° NW 19:12:29 55° NNE 19:12:43 54° NNE visible
18 Feb 4.3 20:55:57 10° NW 20:59:54 35° NW 20:59:54 35° NW visible
19 Feb 3.7 16:25:01 10° W 16:31:27 42° N 16:38:54 10° ENE visible
19 Feb 3.5 18:16:43 10° NW 18:23:46 47° NNE 18:26:05 38° ENE visible
19 Feb 3.6 20:07:39 10° NW 20:13:16 55° NW 20:13:16 55° NW visible
19 Feb 5.0 21:58:39 10° NW 22:00:27 18° WNW 22:00:27 18° WNW visible
20 Feb 3.7 17:28:12 10° WNW 17:35:00 43° N 17:39:28 24° ENE visible
20 Feb 3.1 19:19:19 10° NW 19:26:39 69° NNE 19:26:39 69° NNE visible
20 Feb 4.5 21:10:09 10° NW 21:13:50 30° WNW 21:13:50 30° WNW visible
21 Feb 3.7 16:39:35 10° WNW 16:46:11 41° N 16:52:51 13° ENE visible
21 Feb 3.3 18:30:58 10° NW 18:38:21 57° NNE 18:40:02 49° ENE visible
21 Feb 3.7 20:21:46 10° NW 20:27:14 49° WNW 20:27:14 49° WNW visible
21 Feb 5.2 22:13:21 10° WNW 22:14:25 13° WNW 22:14:25 13° WNW visible
22 Feb 3.5 17:42:33 10° NW 17:49:40 48° NNE 17:53:28 30° ENE visible
22 Feb 3.1 19:33:26 10° NW 19:40:39 80° NW 19:40:39 80° NW visible
22 Feb 4.7 21:24:31 10° WNW 21:27:50 24° WNW 21:27:50 24° WNW visible
23 Feb 3.6 16:54:02 10° WNW 17:00:54 43° NNE 17:06:54 17° ENE visible
23 Feb 3.0 18:45:07 10° NW 18:52:47 73° NE 18:54:05 63° E visible
23 Feb 4.0 20:35:58 10° NW 20:41:17 39° W 20:41:17 39° W visible
24 Feb 3.7 16:05:28 10° WNW 16:12:06 41° N 16:19:44 10° ENE visible
24 Feb 3.2 17:56:47 10° NW 18:04:14 59° NNE 18:07:34 37° E visible
24 Feb 3.3 19:47:34 10° NW 19:54:46 63° WSW 19:54:46 63° WSW visible
24 Feb 5.0 21:39:21 10° WNW 21:41:57 17° W 21:41:57 17° W visible
25 Feb 3.4 17:08:23 10° NW 17:15:34 50° NNE 17:21:05 21° E visible
25 Feb 3.0 18:59:14 10° NW 19:07:03 84° SW 19:08:17 68° SSE visible
25 Feb 4.5 20:50:24 10° WNW 20:55:28 29° W 20:55:28 29° W visible
26 Feb 3.6 16:19:54 10° WNW 16:26:49 44° NNE 16:34:38 10° E visible
26 Feb 3.1 18:10:55 10° NW 18:18:37 77° NE 18:21:50 43° ESE visible
26 Feb 3.8 20:01:49 10° NW 20:09:02 44° WSW 20:09:02 44° WSW visible
26 Feb 5.4 21:55:43 10° W 21:56:14 11° W 21:56:14 11° W visible
27 Feb 3.2 17:22:35 10° NW 17:30:05 62° NNE 17:35:27 24° ESE visible
27 Feb 3.4 19:13:23 10° NW 19:21:07 60° SW 19:22:39 53° SSW visible
27 Feb 4.9 21:05:22 10° WNW 21:09:51 19° W 21:09:51 19° W visible
